AFL1060 UUEE-UWOR

Flight info

Callsign AFL1060
Flight time N/A
Altitude 37000
Route KOGOM3H KOGOM L94 EKPIR M864 IBROT T784 OTKOL T787 OKSUD T778 MOF T750 LALEP LALEP5G
Aircraft A320/M-VGDW/C

Departure

Time 2026-04-30 08:10
Airport Sheremetyevo International Airport (UUEE)

Arrival

Time N/A
Airport Orsk Airport (UWOR)
Time Latitude Longitude Altitude Speed Heading
2026-04-30 07:48 55.97798 37.41813 639 ft 0 kts 345°
2026-04-30 08:01 55.97784 37.41819 641 ft 4 kts 346°
2026-04-30 08:02 55.97738 37.41841 640 ft 2 kts
2026-04-30 08:02 55.97727 37.41836 642 ft 2 kts 49°
2026-04-30 08:03 55.97717 37.41801 642 ft 2 kts 76°
2026-04-30 08:03 55.97716 37.41794 641 ft 0 kts 77°
2026-04-30 08:05 55.97720 37.41819 642 ft 5 kts 75°
2026-04-30 08:06 55.97727 37.41870 641 ft 4 kts 75°
2026-04-30 08:06 55.97738 37.41944 643 ft 7 kts 75°
2026-04-30 08:06 55.97751 37.42026 645 ft 9 kts 75°
2026-04-30 08:06 55.97733 37.42116 639 ft 8 kts 148°
2026-04-30 08:07 55.97687 37.42185 639 ft 11 kts 97°
2026-04-30 08:07 55.97703 37.42308 640 ft 9 kts 74°
2026-04-30 08:07 55.97720 37.42421 639 ft 12 kts 75°
2026-04-30 08:07 55.97741 37.42557 639 ft 11 kts 74°
2026-04-30 08:08 55.97760 37.42686 642 ft 10 kts 75°
2026-04-30 08:08 55.97744 37.42787 639 ft 9 kts 154°
2026-04-30 08:08 55.97674 37.42824 639 ft 10 kts 165°
2026-04-30 08:08 55.97601 37.42813 639 ft 10 kts 236°
2026-04-30 08:09 55.97583 37.42699 643 ft 13 kts 255°
2026-04-30 08:09 55.97496 37.42110 644 ft 88 kts 255°
2026-04-30 08:09 55.97283 37.40657 643 ft 148 kts 256°
2026-04-30 08:09 55.96980 37.38703 950 ft 169 kts 255°
2026-04-30 08:10 55.96654 37.36708 1812 ft 168 kts 257°
2026-04-30 08:10 55.96333 37.34669 2511 ft 175 kts 258°
2026-04-30 08:10 55.95999 37.32488 3009 ft 190 kts 258°
2026-04-30 08:10 55.95642 37.30125 3554 ft 204 kts 257°
2026-04-30 08:11 55.95257 37.27597 4033 ft 221 kts 257°
2026-04-30 08:11 55.94818 37.24808 4525 ft 241 kts 256°
2026-04-30 08:11 55.94338 37.21855 5288 ft 254 kts 256°
2026-04-30 08:11 55.93846 37.18789 6196 ft 259 kts 256°
2026-04-30 08:12 55.93339 37.15663 7078 ft 265 kts 256°
2026-04-30 08:12 55.92826 37.12471 7953 ft 269 kts 256°
2026-04-30 08:12 55.92323 37.09282 8867 ft 272 kts 256°
2026-04-30 08:12 55.91856 37.05990 9769 ft 275 kts 264°
2026-04-30 08:13 55.91921 37.02602 10607 ft 275 kts 284°
2026-04-30 08:13 55.92654 36.99463 11412 ft 276 kts 305°
2026-04-30 08:13 55.93966 36.96964 12218 ft 279 kts 324°
2026-04-30 08:13 55.95575 36.94986 12999 ft 283 kts 326°
2026-04-30 08:14 55.97305 36.93280 13792 ft 286 kts 340°
2026-04-30 08:14 55.99263 36.92567 14523 ft 290 kts 358°
2026-04-30 08:14 56.01003 36.92867 15127 ft 294 kts 13°
2026-04-30 08:14 56.02900 36.94290 15828 ft 299 kts 30°
2026-04-30 08:15 56.04658 36.96339 16500 ft 304 kts 31°
2026-04-30 08:15 56.06432 36.98429 17178 ft 308 kts 31°
2026-04-30 08:15 56.08230 37.00543 17869 ft 311 kts 31°
2026-04-30 08:15 56.09988 37.02849 18544 ft 316 kts 41°
2026-04-30 08:16 56.11442 37.05829 19135 ft 321 kts 54°
2026-04-30 08:16 56.12513 37.09434 19446 ft 337 kts 68°
2026-04-30 08:16 56.13158 37.13517 19712 ft 351 kts 74°
2026-04-30 08:16 56.13753 37.17806 20191 ft 357 kts 74°
2026-04-30 08:17 56.14338 37.22149 20754 ft 361 kts 78°
2026-04-30 08:17 56.14442 37.26672 21328 ft 366 kts 96°
2026-04-30 08:17 56.13812 37.31105 21884 ft 370 kts 113°
2026-04-30 08:17 56.12486 37.35072 22410 ft 374 kts 130°
2026-04-30 08:18 56.11897 37.36240 22591 ft 375 kts 136°